Select NOAA-NWS Forecast Office Text Products

(Product availability varies with seasons, forecast office, and weather.)

Regional Weather Roundup for Pendleton, OR

To Select Another NWS Office Click on Map or Choose from List

County Warning Area MAP
Select Forecast Office:   Select Product:  
368
ASUS46 KPDT 301125
RWRPDT
PENDLETON REGIONAL WEATHER ROUNDUP
NATIONAL WEATHER SERVICE PENDLETON OREGON
400 AM PDT THU MAY 30 2024

NOTE: FAIR INDICATES FEW OR NO CLOUDS BELOW 12,000 FEET WITH NO
SIGNIFICANT WEATHER AND/OR OBSTRUCTIONS TO VISIBILITY.

# INDICATES UNOFFICIAL STATION AND DATA

WAZ520-301210-
EAST SLOPES OF WASHINGTON CASCADES

CITY            SKY/WX      TMP DP  RH  WIND    PRES   REMARKS
#BULLFROG       N/A         38  37  96  SW1     N/A
#CLE ELUM HS    N/A         36  34  92  W1      30.23R
#ELK HTS DOT    N/A         42  33  70  SW5     N/A
#GLENWOOD       N/A         30  28  92  CALM    30.33R
#TROUT LAKE 1NE N/A         37  34  89  CALM    30.32F
#TROUT LAKE 1E  N/A         38  34  85  CALM    30.32F
$$

WAZ521-301210-
SIMCOE HIGHLANDS

CITY            SKY/WX      TMP DP  RH  WIND    PRES   REMARKS
#SATUS PASS DOT N/A         37  27  67  N1      N/A
#CENTERVILLE 1SWN/A         41  35  79  SW1     30.26S
#LYLE 6NE       N/A         43  39  86  SE2     30.32S
$$

WAZ026-301210-
KITTITAS VALLEY

CITY            SKY/WX      TMP DP  RH  WIND    PRES   REMARKS
ELLENSBURG AP   FAIR        44  34  68  NW15    30.29R WCI 37
#ELLENSBURG CWU N/A         42  36  79  CALM    30.25R
#ELLENSBURG 1E  N/A         41  35  79  S1      30.34R
#KITTITAS 3S    N/A         32  28  85  CALM    30.31R
#MANASTASH RDG  N/A         36  31  82  W1      N/A
#ROCKY CYN DOT  N/A         45  34  65  W17     N/A    WCI 38
#RYEGRASS DOT   N/A         35  32  89  E10     N/A
#THORP 6N       N/A         36  34  92  CALM    30.24S
$$

WAZ027-301210-
YAKIMA VALLEY

CITY            SKY/WX      TMP DP  RH  WIND    PRES   REMARKS
SUNNYSIDE AP    FAIR        38  35  89  NE3     30.31R
YAKIMA AIRPORT  FAIR        39  31  73  CALM    30.30S
YAKIMA-VAGABOND FAIR        44  32  62  CALM    30.26R
#MABTON         N/A         42  32  67  CALM    30.31S
#NACHES 2SW     N/A         43  34  70  W8      30.29S
#OUTLOOK DOT    N/A         47  35  63  SW8     N/A
#PARKER DOT     N/A         47  35  63  VRB5    N/A
#TERRACE HTS    N/A         47  34  60  N6      30.25S
#I82 S UMTANUM RN/A         43  29  57  NW6     N/A
#UNION GAP DOT  N/A         44  35  70  CALM    N/A
#ZILLAH DOT     N/A         43  36  76  E1      N/A
$$

WAZ028-301210-
LOWER COLUMBIA BASIN...WASHINGTON

CITY            SKY/WX      TMP DP  RH  WIND    PRES   REMARKS
PASCO           FAIR        43  38  82  CALM    30.31R
PROSSER AWOS    N/A         39  37  92  NE3     30.33R
RICHLAND AWOS   FAIR        45  37  73  SW5     30.31R
#BASIN CITY 5SW N/A         48  36  63  W7      30.27S
#BENTON CITY    N/A         44  37  76  W3      30.20R
#CONNELL 5N     N/A         40  35  82  CALM    30.28R
#KENNEWICK 3S   N/A         45  36  70  SW2     30.31S
#PROSSER DOT    N/A         41  35  79  CALM    N/A
#SAGEMOOR 2W    N/A         44  37  76  CALM    30.29S
$$

WAZ029-301210-
FOOTHILLS OF THE BLUES...WASHINGTON

CITY            SKY/WX      TMP DP  RH  WIND    PRES   REMARKS
WALLA WALLA AP  MOCLDY      49  38  66  S10     30.30S
#CLYDE 6NW      N/A         43  36  76  CALM    30.31R
#DELANEY DOT    N/A         47  38  71  E1      N/A
#LOWDEN 2SE     N/A         48  39  71  CALM    30.19R
#WALLA WALLA 5E N/A         49  40  71  S6      N/A
#WHITMAN MISSIONN/A         49  42  77  CALM    30.37R
$$

WAZ030-301210-
BLUE MOUNTAINS...WASHINGTON

CITY            SKY/WX      TMP DP  RH  WIND    PRES   REMARKS
$$

ORZ009-041-WAZ024-301210-
COLUMBIA RIVER GORGE

CITY            SKY/WX      TMP DP  RH  WIND    PRES   REMARKS
HOOD RIVER AP   FAIR        46  41  83  NW12    30.34F WCI 40
THE DALLES AP   FAIR        50  39  66  SW10    30.34S
#CELILO DOT     N/A         50  37  61  SW5     N/A
#LYLE           N/A         49  41  74  N1      30.35R
#MARYHILL       N/A         46  34  63  SW5     N/A
#RUFUS DOT      N/A         53  37  54  W12     N/A

$$

ORZ510-301210-
NORTH CENTRAL OREGON

CITY            SKY/WX      TMP DP  RH  WIND    PRES   REMARKS
#ANTELOPE       N/A         34  30  85  CALM    30.18S
#COW CYN RST AREN/A         41  36  82  S5      N/A
#DUFUR          N/A         32  30  92  CALM    30.30R
#GRASS VALLEY 1SN/A         40  35  82  CALM    30.27R
#KENT DOT       N/A         37  33  85  SE3     N/A
#SHANIKO 5WSW   N/A         39  32  76  NW3     N/A
#WAPANITIA AIRPON/A         40  34  79  W5      30.32S
#WASCO DOT      N/A         44  37  76  S6      N/A
#WASCO 5NE      N/A         44  37  76  SW1     30.29S
$$

ORZ511-301210-
CENTRAL OREGON

CITY            SKY/WX      TMP DP  RH  WIND    PRES   REMARKS
BEND AIRPORT    FAIR        36  30  79  S6      30.31S
MADRAS AIRPORT  FAIR        36  34  92  NE7     30.34F
PRINEVILLE AP   FAIR        30  28  92  CALM    30.32S
REDMOND AIRPORT FAIR        34  29  82  S6      30.31S SMOKE
#ASHWOOD SCHOOL N/A         39  33  79  SE5     30.27S
#CULVER         N/A         39  33  79  CALM    29.34F
#PRINEVILLE     N/A         35  32  89  CALM    30.39R

$$


ORZ509-301210-
EAST SLOPES OF OREGON CASCADES

CITY            SKY/WX      TMP DP  RH  WIND    PRES   REMARKS
SISTERS AWOS    N/A         39  34  82  CALM    30.26S
SUNRIVER AWOS   MOCLEAR     28  28  100 CALM    30.36S
#BLUE BOX PASS  N/A         35  N/A N/A CALM    N/A
#CAMP SHERMAN   N/A         32  28  85  CALM    30.36S
#LA PINE DOT    N/A         32  28  85  CALM    N/A
#LAVA BUTTE DOT N/A         32  31  96  CALM    N/A
#SISTERS ODOT   N/A         31  24  75  CALM    N/A
#WANOGA BUTTE D N/A         35  22  59  SW1     N/A

$$

ORZ044-301210-
LOWER COLUMBIA BASIN...OREGON

CITY            SKY/WX      TMP DP  RH  WIND    PRES   REMARKS
HERMISTON       FAIR        47  37  68  SW9     30.32R
#ECHO 8SW       N/A         43  37  79  SW7     30.32S
#I-84 EX 198 DOTN/A         45  36  70  E7      N/A
#UMATILLA       N/A         47  40  76  CALM    30.23R
$$

ORZ507-301210-
NORTHERN FOOTHILLS OF THE BLUES

CITY            SKY/WX      TMP DP  RH  WIND    PRES   REMARKS
PENDLETON AIRPT FAIR        46  35  65  S3      30.32R
#ATHENA         N/A         45  36  70  SW2     30.31S
#CAYUSE         N/A         48  36  63  SW5     30.29S
#HELIX 3N       N/A         40  35  82  CALM    30.31R
#HOLDMAN 5SE    N/A         43  36  76  CALM    30.30R
#HOLDMAN 6E     N/A         41  36  82  SE3     30.08S
#M-FREEWATER 5SEN/A         50  38  63  CALM    30.29S
#PDT SUNRIDGE   N/A         44  36  73  CALM    30.29S
#TUTUILLA       N/A         40  34  79  CALM    30.37S
#UMAPINE 2E     N/A         51  39  63  SW3     30.29S

$$

ORZ508-301210-
SOUTHERN FOOTHILLS OF THE BLUES

CITY            SKY/WX      TMP DP  RH  WIND    PRES   REMARKS
#AJAX           N/A         43  35  73  W7      30.32S
#HEPPNER EOC    N/A         45  35  68  SW3     30.25R
#RUGGS 2SW      N/A         40  33  76  SW7     30.34S

$$

ORZ502-503-301210-
BLUE MOUNTAINS

CITY            SKY/WX      TMP DP  RH  WIND    PRES   REMARKS
MEACHAM         CLOUDY      38  33  82  CALM    30.29S
#BATTLE MTN DOT N/A         34  30  85  CALM    N/A
#HARDMAN 10S    N/A         33  30  89  CALM    30.36F
#LADD CYN SMT   N/A         41  33  73  N8      N/A
#LADD CREEK ODOTN/A         41  33  73  N2      N/A
#N POWDER DOT   N/A         40  31  70  N3      N/A
#TOLLGATE       N/A         33  31  92  CALM    30.26R
#WESTON 4E      N/A         41  35  79  CALM    30.27S
$$

ORZ505-301210-
JOHN DAY BASIN

CITY            SKY/WX      TMP DP  RH  WIND    PRES   REMARKS
JOHN DAY        CLOUDY      41  33  73  CALM    30.31S
#MITCHELL 8NW   N/A         41  32  70  CALM    30.27S
#MT. VERNON 5SE N/A         38  32  79  CALM    30.31S
$$

ORZ506-301210-
OCHOCO AND JOHN DAY HIGHLANDS

CITY            SKY/WX      TMP DP  RH  WIND    PRES   REMARKS
#BUCK CREEK DOT N/A         30  27  88  CALM    N/A
#HORSE RIDGE DO N/A         27  24  88  CALM    N/A
#KEYES SMT DOT  N/A         33  31  92  CALM    N/A
#PAULINA ODOT   N/A         34  N/A N/A SW1     N/A
#PRAIRIE CITY   N/A         39  35  85  CALM    30.22F
#SENECA 9NW     N/A         32  28  85  CALM    30.23S
$$

ORZ049-301210-
GRANDE RONDE VALLEY

CITY            SKY/WX      TMP DP  RH  WIND    PRES   REMARKS
LA GRANDE       CLOUDY      43  35  73  NW7     30.32S
#COVE SCHOOL    N/A         44  35  70  CALM    30.29S
#ELGIN 1E       N/A         43  36  76  CALM    N/A
#IMBLER SCHOOL  N/A         44  35  70  CALM    30.24S
#ISLAND CITY 4N N/A         41  38  89  CALM    30.41S
#LADD CYN DOT   N/A         45  37  73  E1      N/A
#UNION 1S       N/A         41  35  79  CALM    30.29S
$$

ORZ050-301210-
WALLOWA COUNTY

CITY            SKY/WX      TMP DP  RH  WIND    PRES   REMARKS
#IMNAHA SCHOOL  N/A         47  37  68  CALM    30.29R
#JOSEPH 3N      N/A         34  28  78  CALM    30.25F
#LOSTINE 3SE    N/A         38  32  79  CALM    30.36S
#MT HOWARD 8000 N/A         24  21  88  N2      30.16S
#WALLOWA LAKE   N/A         34  31  89  CALM    30.32S
#WALLOWA SCHOOL N/A         44  35  70  CALM    30.27S



$$

Previous Regional Weather Roundups may be found at
NWS Pendleton, OR (PDT) Office Regional Weather Roundups.
(Click 'Previous Version' there to view past versions successively.
Some may differ only in time posted.)

San Juan, PRHonolulu, HI Lake Charles, LA Pueblo, CO Corpus Christi, TX St. Louis, MO Reno, NV Raleigh, NC  Newport/Morehead City, NC Dodge City, KS Houston/Galveston, TX San Joaquin Valley/Hanford, CA Louisville, KY Fort Worth, TX Pittsburgh, PA Austin/San Antonio, TX Sacramento, CA Jackson, MS Phoenix, AZ Northern Indiana, IN Flagstaff, AZ Tallahassee, FL Springfield, MO Riverton, WY Blacksburg, VA Sioux Falls, SD El Paso Area, NM Columbia, SC Wilmington, NC Greenville-Spartanburg, SC Eureka, CA Midland/Odessa, TX Tucson, AZ Goodland, KS Huntsville, AL Amarillo, TX Norman, OK Lubbock, TX Marquette, MI Little Rock, AR Pendleton, OR Missoula, MT Binghamton, NY Boston, MA Green Bay, WI Billings, MT Baltimore/Washington San Diego, CA Tampa Bay, FL Morristown, TN Twin Cities, MN Brownsville, TX Portland, OR Des Moines, IA Memphis, TN Pocatello, ID San Angelo, TX Jacksonville, FL Aberdeen, SD Quad Cities, IA/IL Charleston, SC New Orleans/Baton Rouge, LA Peachtree City, GA Shreveport, LA Grand Rapids, MI Medford, OR Albany, NY Wichita, KS Gray/Portland, ME Spokane, WA Boise, ID Denver/Boulder, CO Great Falls, MT Caribou, ME Key West, FL Miami-South Florida, FL New York City/Upton, NY Melbourne, FL Hastings, NE Paducah, KY Glasgow, MT Bismarck, ND Charleston WV Omaha/Valley, NE Buffalo, NY Jackson, KY Kansas City/Pleasant Hill, MO Gaylord, MI Cheyenne, WY Grand Forks, ND Detroit/Pontiac, MI Central Illinois, IL Burlington, VT Salt Lake City, UT Topeka, KS Nashville, TN Milwaukee/Sullivan, WI Albuquerque, NM Las Vegas, NV Wakefield, VA La Crosse, WI Birmingham, AL Los Angeles/Oxnard, CA Chicago, IL Seattle, WA Rapid City, SD Indianapolis, IN Philadelphia/Mount Holly, PA Mobile/Pensacola State College, PA Cleveland, OH Elko, NV Wilmington, OH Grand Junction, CO North Platte, NE Tulsa, OK San Francisco/Monterey Bay Area, CA Duluth, MN Anchorage, AK Fairbanks, AK Juneau, AK Tiyan, GU

Products Courtesy of NOAA-NWS
NWS Information Parsing Script by Ken True at Saratoga Weather - WFO and Products Scripts by SE Lincoln Weather.
Mapping by Curly at Michiana Weather and by Tom at My Mishawaka Weather.